Bostic, NC

4:10 PM EST on December 06, 2016 (GMT -0500)
Rutherford County-Marchman

Weather History for KFQD - April, 2013

Change the Weather History Date:

Friday, April 19, 2013

  Actual Average (KAVL) Record (KAVL)
Temperature  
Mean Temperature 58 °F 56 °F  
Max Temperature 67 °F 69 °F 89 °F (1896)
Min Temperature 49 °F 44 °F 27 °F (1983)
Degree Days  
Heating Degree Days 6 9  
Month to date heating degree days 217  
Since 1 July heating degree days 3989  
Cooling Degree Days 0 0  
Month to date cooling degree days 0  
Year to date cooling degree days 1  
Growing Degree Days 8 (Base 50)    
Moisture  
Dew Point 60 °F    
Average Humidity 88    
Maximum Humidity 96    
Minimum Humidity 58    
Precipitation  
Precipitation 0.54 in 0.10 in 1.64 in (1940)
Month to date precipitation 2.09  
Year to date precipitation 13.35  
Snow  
Snow 0.00 in 0.00 in T in (1953)
Month to date snowfall 0.6  
Since 1 July snowfall 9.8  
Snow Depth -    
Sea Level Pressure  
Sea Level Pressure 29.86 in    
Wind  
Wind Speed 11 mph (SSW)    
Max Wind Speed 16 mph    
Max Gust Speed 24 mph    
Visibility 9 miles    
Events Rain    
T = Trace of Precipitation, MM = Missing Value Source: NWS Daily Summary

Daily Weather History Graph

Daily Weather History Graph

Search for Another Location

Airport or City:

Trip Planner

Search our weather history database for the weather conditions in past years. The results will help you decide how hot, cold, wet, or windy it might be!

Date:

Astronomy

Apr. 19, 2013 Rise Set
Actual Time 6:49 AM EDT 8:04 PM EDT
Civil Twilight 6:23 AM EDT 8:30 PM EDT
Nautical Twilight 5:51 AM EDT 9:02 PM EDT
Astronomical Twilight 5:19 AM EDT 9:35 PM EDT
Moon 2:00 PM EDT (4/19) 2:51 AM EDT (4/19)
Length of Visible Light 14h 07m
Length of Day
13h 14m
First Quarter, 61% of the Moon is Illuminated
Apr 19
First Quarter
Apr 25
Full
May 2
Last Quarter
May 9
New
May 18
First Quarter

Hourly Weather History & Observations

Time (EDT) Temp. Dew Point Humidity Pressure Visibility Wind Dir Wind Speed Gust Speed Precip Events Conditions
12:15 AM 67.1 °F 61.0 °F 81% 29.98 in 10.0 mi South 16.1 mph 20.7 mph N/A   Overcast
12:35 AM 66.7 °F 60.8 °F 81% 29.97 in 10.0 mi South 13.8 mph 19.6 mph N/A   Scattered Clouds
12:55 AM 66.7 °F 60.8 °F 81% 29.98 in 10.0 mi South 13.8 mph 19.6 mph N/A   Mostly Cloudy
1:15 AM 66.4 °F 60.8 °F 82% 29.97 in 10.0 mi South 12.7 mph 18.4 mph N/A   Overcast
1:35 AM 66.2 °F 60.8 °F 83% 29.96 in 10.0 mi South 11.5 mph 16.1 mph N/A   Overcast
1:55 AM 66.2 °F 60.8 °F 83% 29.96 in 10.0 mi South 10.4 mph 20.7 mph N/A   Overcast
2:15 AM 65.8 °F 60.8 °F 84% 29.95 in 10.0 mi South 11.5 mph 18.4 mph N/A   Overcast
2:35 AM 65.8 °F 60.8 °F 84% 29.94 in 10.0 mi South 12.7 mph 18.4 mph N/A   Overcast
2:55 AM 65.3 °F 61.0 °F 86% 29.92 in 10.0 mi South 12.7 mph 19.6 mph N/A   Overcast
3:15 AM 65.3 °F 61.2 °F 86% 29.92 in 10.0 mi South 12.7 mph 19.6 mph N/A   Overcast
3:35 AM 65.3 °F 61.2 °F 86% 29.92 in 10.0 mi South 8.1 mph 17.3 mph N/A   Overcast
3:55 AM 65.5 °F 61.7 °F 88% 29.91 in 10.0 mi South 12.7 mph 19.6 mph N/A   Overcast
4:15 AM 65.7 °F 61.7 °F 87% 29.91 in 10.0 mi South 10.4 mph 18.4 mph N/A   Overcast
4:35 AM 65.7 °F 61.7 °F 87% 29.90 in 10.0 mi South 15.0 mph 19.6 mph N/A   Overcast
4:55 AM 65.5 °F 61.7 °F 88% 29.88 in 10.0 mi South 9.2 mph 18.4 mph N/A   Overcast
5:15 AM 65.5 °F 61.7 °F 88% 29.89 in 10.0 mi SSW 6.9 mph - N/A   Overcast
5:35 AM 65.5 °F 61.7 °F 88% 29.89 in 10.0 mi SSW 8.1 mph - N/A   Overcast
5:55 AM 65.5 °F 61.7 °F 88% 29.89 in 10.0 mi SSW 8.1 mph 21.9 mph N/A   Overcast
6:15 AM 65.3 °F 61.7 °F 88% 29.87 in 10.0 mi South 12.7 mph 20.7 mph N/A   Overcast
6:55 AM 65.3 °F 61.9 °F 89% 29.87 in 10.0 mi South 9.2 mph - N/A   Overcast
7:15 AM 65.3 °F 62.1 °F 89% 29.89 in 10.0 mi South 11.5 mph 21.9 mph N/A   Overcast
7:35 AM 65.3 °F 62.2 °F 90% 29.89 in 10.0 mi South 12.7 mph 21.9 mph N/A   Overcast
7:55 AM 65.3 °F 62.2 °F 90% 29.89 in 10.0 mi South 9.2 mph 19.6 mph N/A   Overcast
8:15 AM 65.7 °F 62.4 °F 89% 29.89 in 10.0 mi South 12.7 mph 20.7 mph N/A   Overcast
8:35 AM 65.7 °F 62.6 °F 90% 29.88 in 10.0 mi South 12.7 mph 23.0 mph N/A Rain Light Rain
8:55 AM 66.2 °F 62.6 °F 88% 29.89 in 10.0 mi SSW 9.2 mph 19.6 mph N/A   Overcast
9:15 AM 65.3 °F 63.5 °F 94% 29.87 in 5.0 mi South 9.2 mph 20.7 mph 0.02 in Rain Light Rain
9:35 AM 65.3 °F 63.5 °F 94% 29.87 in 7.0 mi South 10.4 mph 19.6 mph 0.06 in Rain Light Rain
9:55 AM 65.3 °F 63.3 °F 93% 29.87 in 10.0 mi South 9.2 mph 18.4 mph 0.06 in Rain Light Rain
10:15 AM 65.7 °F 63.5 °F 93% 29.86 in 10.0 mi SSW 9.2 mph - N/A Rain Rain
10:55 AM 66.2 °F 64.4 °F 94% 29.85 in 10.0 mi South 11.5 mph 18.4 mph 0.09 in Rain Light Rain
11:15 AM 66.6 °F 64.6 °F 93% 29.83 in 10.0 mi South 10.4 mph 16.1 mph N/A   Overcast
11:35 AM 66.2 °F 64.6 °F 94% 29.83 in 10.0 mi SSW 6.9 mph - N/A   Overcast
11:55 AM 66.2 °F 64.8 °F 95% 29.82 in 5.0 mi WSW 3.5 mph - 0.01 in Rain Rain
12:15 PM 66.2 °F 65.1 °F 96% 29.81 in 7.0 mi SW 3.5 mph - 0.01 in   Overcast
12:35 PM 66.4 °F 65.3 °F 96% 29.80 in 5.0 mi SSW 5.8 mph - 0.01 in   Light Drizzle
12:55 PM 67.1 °F 65.7 °F 95% 29.78 in 7.0 mi South 10.4 mph - 0.01 in Rain Light Rain
1:15 PM 67.6 °F 65.3 °F 92% 29.78 in 7.0 mi South 8.1 mph - N/A Rain Light Rain
1:35 PM 67.1 °F 65.5 °F 95% 29.78 in 5.0 mi West 4.6 mph - 0.01 in Rain Light Rain
1:55 PM 65.8 °F 64.6 °F 96% 29.80 in 2.0 mi SW 10.4 mph 19.6 mph 0.12 in Rain Rain
2:15 PM 66.4 °F 64.6 °F 94% 29.82 in 5.0 mi SW 9.2 mph 21.9 mph 0.02 in Rain Rain
2:35 PM 66.4 °F 64.9 °F 95% 29.82 in 7.0 mi SW 6.9 mph 16.1 mph 0.04 in Rain Rain
2:55 PM 66.4 °F 65.3 °F 96% 29.80 in 5.0 mi SSW 8.1 mph - 0.11 in Rain Rain
3:15 PM 66.6 °F 64.6 °F 93% 29.80 in 7.0 mi SSW 6.9 mph - 0.02 in Rain Light Rain
3:35 PM 66.2 °F 64.4 °F 94% 29.79 in 10.0 mi SSW 6.9 mph - 0.03 in Rain Rain
3:55 PM 65.8 °F 64.8 °F 96% 29.80 in 5.0 mi SW 8.1 mph - 0.07 in Rain Rain
4:15 PM 65.7 °F 64.0 °F 94% 29.79 in 7.0 mi South 11.5 mph 23.0 mph 0.03 in Rain Light Rain
4:35 PM 64.2 °F 62.1 °F 93% 29.80 in 10.0 mi SSW 16.1 mph 24.2 mph 0.06 in Rain Light Rain
4:55 PM 63.0 °F 60.8 °F 93% 29.78 in 10.0 mi South 13.8 mph 19.6 mph 0.07 in Rain Light Rain
5:15 PM 62.6 °F 59.9 °F 91% 29.77 in 10.0 mi SSW 10.4 mph 19.6 mph N/A   Scattered Clouds
5:35 PM 62.4 °F 59.9 °F 91% 29.77 in 10.0 mi SSW 6.9 mph 18.4 mph N/A   Mostly Cloudy
5:55 PM 61.7 °F 59.4 °F 92% 29.77 in 10.0 mi SSW 8.1 mph 18.4 mph N/A   Light Drizzle
6:15 PM 61.5 °F 59.0 °F 91% 29.75 in 10.0 mi South 12.7 mph 18.4 mph N/A   Scattered Clouds
6:35 PM 60.6 °F 57.6 °F 90% 29.78 in 10.0 mi SSW 12.7 mph 19.6 mph N/A   Mostly Cloudy
6:55 PM 59.5 °F 56.8 °F 91% 29.77 in 10.0 mi SW 10.4 mph 16.1 mph N/A   Mostly Cloudy
7:15 PM 58.8 °F 56.7 °F 93% 29.77 in 10.0 mi SSW 8.1 mph 16.1 mph N/A   Mostly Cloudy
7:35 PM 58.1 °F 56.5 °F 94% 29.77 in 10.0 mi SSW 8.1 mph - N/A   Mostly Cloudy
7:55 PM 57.6 °F 55.9 °F 94% 29.78 in 10.0 mi SSW 10.4 mph - N/A   Mostly Cloudy
8:15 PM 57.0 °F 55.4 °F 94% 29.79 in 10.0 mi SW 5.8 mph - N/A   Overcast
8:35 PM 56.5 °F 55.0 °F 95% 29.81 in 10.0 mi SSW 6.9 mph - N/A   Mostly Cloudy
8:55 PM 56.3 °F 54.7 °F 94% 29.81 in 10.0 mi Calm Calm - N/A   Scattered Clouds
9:15 PM 55.6 °F 54.5 °F 96% 29.82 in 10.0 mi SSW 6.9 mph - N/A   Scattered Clouds
9:35 PM 54.9 °F 53.8 °F 96% 29.84 in 10.0 mi SW 4.6 mph - N/A   Clear
9:55 PM 54.5 °F 53.4 °F 96% 29.86 in 10.0 mi SW 4.6 mph - N/A   Clear
10:15 PM 54.9 °F 49.3 °F 81% 29.88 in 10.0 mi West 8.1 mph - N/A   Clear
10:35 PM 53.6 °F 41.5 °F 64% 29.90 in 10.0 mi WNW 5.8 mph - N/A   Clear
10:55 PM 53.1 °F 39.0 °F 59% 29.92 in 10.0 mi NW 4.6 mph - N/A   Clear
11:15 PM 52.0 °F 37.6 °F 58% 29.92 in 10.0 mi WNW 9.2 mph - N/A   Scattered Clouds
11:35 PM 50.7 °F 36.5 °F 58% 29.94 in 10.0 mi WNW 10.4 mph - N/A   Scattered Clouds
11:55 PM 49.8 °F 35.8 °F 59% 29.94 in 10.0 mi WNW 6.9 mph - N/A   Clear